FW9701 Weather Reports


time (UTC)temp
F
wind
direction
speed
knots
gust
knots
rain 1hr
in
rain 24hr
in
rain mn
in
humidity
%
barometer
mb
20260506231527 53 332 2.6 8.7 0.00 0.00 0.00 35 1014.7
20260506231008 54 322 3.5 8.7 0.00 0.00 0.00 34 1014.7
20260506230515 54 316 4.3 11.3 0.00 0.00 0.00 35 1014.7
20260506230048 53 359 4.3 11.3 0.00 0.00 0.00 34 1014.8
20260506225509 53 332 5.2 11.3 0.00 0.00 0.00 34 1014.9
20260506225011 54 337 6.1 14.8 0.00 0.00 0.00 34 1014.9
20260506224530 54 292 5.2 14.8 0.00 0.00 0.00 33 1015.0
20260506224009 55 311 7.8 14.8 0.00 0.00 0.00 32 1015.1
20260506223507 55 349 7.8 12.2 0.00 0.00 0.00 34 1015.1
20260506223033 55 284 7.0 11.3 0.00 0.00 0.00 34 1015.0
20260506222513 55 14 2.6 9.6 0.00 0.00 0.00 32 1015.0
20260506222015 55 333 3.5 11.3 0.00 0.00 0.00 33 1015.1
20260506221530 55 320 6.1 11.3 0.00 0.00 0.00 33 1015.3
20260506221013 55 338 5.2 11.3 0.00 0.00 0.00 34 1015.2
20260506220507 54 352 6.1 13.9 0.00 0.00 0.00 33 1015.3
20260506220035 54 345 7.0 13.9 0.00 0.00 0.00 36 1015.2
20260506215510 54 360 7.0 13.0 0.00 0.00 0.00 33 1015.3
20260506215009 55 3 5.2 13.0 0.00 0.00 0.00 33 1015.4
20260506214529 55 348 4.3 12.2 0.00 0.00 0.00 34 1015.3
20260506214009 54 2 5.2 12.2 0.00 0.00 0.00 36 1015.5
20260506213515 53 11 6.1 9.6 0.00 0.00 0.00 37 1015.5
20260506213028 54 341 4.3 10.4 0.00 0.00 0.00 35 1015.5
20260506212510 54 312 4.3 16.5 0.00 0.00 0.00 34 1015.6
20260506212016 56 344 8.7 16.5 0.00 0.00 0.00 35 1015.6
20260506211528 56 318 5.2 13.0 0.00 0.00 0.00 34 1015.6
20260506211010 55 328 7.8 13.0 0.00 0.00 0.00 35 1015.7
20260506210515 54 328 7.0 10.4 0.00 0.00 0.00 39 1015.6
20260506210046 54 314 2.6 10.4 0.00 0.00 0.00 36 1015.7
20260506205512 54 326 4.3 12.2 0.00 0.00 0.00 38 1015.9
20260506205014 53 278 6.1 12.2 0.00 0.00 0.00 38 1015.9
20260506204527 53 351 4.3 11.3 0.00 0.00 0.00 38 1016.0
20260506204008 53 336 6.1 11.3 0.00 0.00 0.00 38 1016.3
20260506203514 52 269 3.5 11.3 0.00 0.00 0.00 38 1016.3
20260506203026 52 49 3.5 13.0 0.00 0.00 0.00 39 1016.3
20260506202510 52 349 5.2 13.0 0.00 0.00 0.00 38 1016.3
20260506202011 52 310 4.3 13.0 0.00 0.00 0.00 39 1016.3
20260506201528 52 332 7.0 13.9 0.00 0.00 0.00 39 1016.4
20260506201011 52 3 7.0 13.9 0.00 0.00 0.00 37 1016.5
20260506200510 53 356 6.1 12.2 0.00 0.00 0.00 39 1016.5
20260506200032 53 60 3.5 11.3 0.00 0.00 0.00 38 1016.4
20260506195511 53 316 4.3 13.9 0.00 0.00 0.00 36 1016.6
20260506195011 53 327 5.2 13.9 0.00 0.00 0.00 37 1016.6
20260506194530 53 295 6.1 13.9 0.00 0.00 0.00 36 1016.6
20260506194011 53 295 7.0 13.9 0.00 0.00 0.00 39 1016.6
20260506193511 54 347 3.5 14.8 0.00 0.00 0.00 40 1016.6
20260506193035 54 338 8.7 14.8 0.00 0.00 0.00 37 1016.7
20260506192510 53 342 5.2 14.8 0.00 0.00 0.00 38 1016.7
20260506192011 53 325 6.1 14.8 0.00 0.00 0.00 41 1016.7
20260506191528 53 302 4.3 12.2 0.00 0.00 0.00 42 1016.7
20260506191008 53 315 4.3 12.2 0.00 0.00 0.00 39 1016.7
20260506190511 53 337 3.5 11.3 0.00 0.00 0.00 42 1016.8
20260506190031 52 222 3.5 12.2 0.00 0.00 0.00 43 1016.9
20260506185512 52 325 7.8 12.2 0.00 0.00 0.00 42 1017.0
20260506185012 51 221 5.2 11.3 0.00 0.00 0.00 41 1017.1
20260506184536 51 214 4.3 10.4 0.00 0.00 0.00 40 1017.0
20260506184009 51 321 6.1 13.0 0.00 0.00 0.00 41 1017.2
20260506183512 52 344 4.3 13.0 0.00 0.00 0.00 41 1017.1
20260506183028 51 315 5.2 13.0 0.00 0.00 0.00 43 1017.3
20260506182511 51 221 3.5 13.0 0.00 0.00 0.00 43 1017.3
20260506182013 51 342 7.0 21.7 0.00 0.00 0.00 43 1017.4
20260506181538 51 316 8.7 21.7 0.00 0.00 0.00 43 1017.5
20260506181014 50 316 7.0 14.8 0.00 0.00 0.00 41 1017.5
20260506180507 50 329 7.8 14.8 0.00 0.00 0.00 44 1017.5
20260506180028 50 3 7.8 11.3 0.00 0.00 0.00 44 1017.5
20260506175508 50 337 6.1 13.9 0.00 0.00 0.00 43 1017.6
20260506175013 51 11 6.1 13.9 0.00 0.00 0.00 43 1017.8
20260506174534 50 340 4.3 13.0 0.00 0.00 0.00 45 1017.8
20260506174013 49 351 6.1 13.0 0.00 0.00 0.00 43 1017.8
20260506173510 49 282 7.8 12.2 0.00 0.00 0.00 43 1017.7
20260506173029 48 321 6.1 16.5 0.00 0.00 0.00 43 1017.8
20260506172512 49 308 6.1 16.5 0.00 0.00 0.00 44 1018.0
20260506172011 48 330 6.1 16.5 0.00 0.00 0.00 44 1018.0
20260506171532 48 293 8.7 16.5 0.00 0.00 0.00 42 1018.0
20260506171011 48 337 4.3 8.7 0.00 0.00 0.00 46 1018.1
20260506170512 48 224 4.3 16.5 0.00 0.00 0.00 45 1018.1
20260506170031 48 50 4.3 16.5 0.00 0.00 0.00 46 1018.2
20260506165509 48 360 10.4 16.5 0.00 0.00 0.00 46 1018.0
20260506165010 48 336 7.8 15.6 0.00 0.00 0.00 44 1018.1
20260506164543 47 14 6.1 12.2 0.00 0.00 0.00 45 1018.1
20260506164008 48 307 4.3 13.0 0.00 0.00 0.00 48 1018.2
20260506163507 47 16 5.2 13.9 0.00 0.00 0.00 47 1018.1
20260506163030 47 340 7.8 13.9 0.00 0.00 0.00 48 1018.2
20260506162510 47 323 7.0 13.0 0.00 0.00 0.00 47 1018.2
20260506162011 46 335 6.1 14.8 0.00 0.00 0.00 47 1018.3
20260506161528 46 341 6.1 14.8 0.00 0.00 0.00 47 1018.3
20260506161010 47 311 6.1 14.8 0.00 0.00 0.00 47 1018.2
20260506160510 47 4 5.2 11.3 0.00 0.00 0.00 50 1018.2
20260506160030 47 314 7.8 11.3 0.00 0.00 0.00 49 1018.3
20260506155509 46 40 5.2 11.3 0.00 0.00 0.00 51 1018.3
20260506155010 46 314 5.2 9.6 0.00 0.00 0.00 51 1018.3
20260506154529 46 340 4.3 8.7 0.00 0.00 0.00 51 1018.3
20260506154016 45 24 2.6 9.6 0.00 0.00 0.00 53 1018.5
20260506153514 45 326 3.5 9.6 0.00 0.00 0.00 52 1018.5
20260506153026 45 341 3.5 10.4 0.00 0.00 0.00 53 1018.5
20260506152508 45 328 4.3 12.2 0.00 0.00 0.00 53 1018.5
20260506152013 44 328 6.1 12.2 0.00 0.00 0.00 54 1018.6
20260506151530 44 333 4.3 10.4 0.00 0.00 0.00 57 1018.6
20260506151009 44 315 6.1 10.4 0.00 0.00 0.00 54 1018.5
20260506150508 43 333 4.3 7.8 0.00 0.00 0.00 56 1018.6
20260506150030 43 308 2.6 7.8 0.00 0.00 0.00 56 1018.6
20260506145513 43 322 2.6 7.0 0.00 0.00 0.00 56 1018.6
20260506145012 43 352 1.7 7.0 0.00 0.00 0.00 56 1018.6
20260506144530 43 344 4.3 7.0 0.00 0.00 0.00 55 1018.7
20260506144013 42 315 3.5 7.0 0.00 0.00 0.00 54 1018.6
20260506143512 42 288 3.5 7.0 0.00 0.00 0.00 55 1018.6
20260506143031 42 328 4.3 7.0 0.00 0.00 0.00 58 1018.7
20260506142513 42 336 4.3 6.1 0.00 0.00 0.00 57 1018.7
20260506142012 42 295 1.7 6.1 0.00 0.00 0.00 58 1018.7
20260506141533 41 331 2.6 5.2 0.00 0.00 0.00 58 1018.7
20260506141015 41 341 1.7 5.2 0.00 0.00 0.00 59 1018.7
20260506140509 41 343 2.6 5.2 0.00 0.00 0.00 59 1018.7
20260506140030 41 322 1.7 3.5 0.00 0.00 0.00 58 1018.7
20260506135508 41 342 0.9 2.6 0.00 0.00 0.00 61 1018.5
20260506135012 41 6 0.9 2.6 0.00 0.00 0.00 61 1018.7
20260506134527 41 305 0.9 4.3 0.00 0.00 0.00 63 1018.6
20260506134010 40 335 1.7 4.3 0.00 0.00 0.00 60 1018.6
20260506133509 40 316 2.6 4.3 0.00 0.00 0.00 63 1018.5
20260506133029 40 3 2.6 4.3 0.00 0.00 0.00 62 1018.5
20260506132514 39 319 1.7 4.3 0.00 0.00 0.00 65 1018.3
20260506132010 38 340 1.7 2.6 0.00 0.00 0.00 66 1018.4
20260506131528 38 342 0.9 2.6 0.00 0.00 0.00 69 1018.4
20260506131011 37 331 0.9 2.6 0.00 0.00 0.00 69 1018.3
20260506130510 36 333 0.9 2.6 0.00 0.00 0.00 71 1018.2
20260506130028 36 9 0.9 2.6 0.00 0.00 0.00 72 1018.2
20260506125514 35 349 0.0 0.9 0.00 0.00 0.00 73 1018.2
20260506125008 34 336 0.0 0.9 0.00 0.00 0.00 75 1018.2
20260506124530 33 338 0.0 0.9 0.00 0.00 0.00 76 1018.2
20260506124009 32 337 0.0 0.0 0.00 0.00 0.00 77 1018.1
20260506123510 32 0 0.0 0.0 0.00 0.00 0.00 77 1018.1
20260506123028 32 0 0.0 0.0 0.00 0.00 0.00 76 1018.1
20260506122509 32 0 0.0 0.9 0.00 0.00 0.00 77 1018.0
20260506122012 31 0 0.0 0.9 0.00 0.00 0.00 77 1017.9
20260506121529 31 346 0.0 0.9 0.00 0.00 0.00 78 1017.9
20260506121009 30 0 0.0 0.9 0.00 0.00 0.00 79 1017.9
20260506120511 30 0 0.0 0.9 0.00 0.00 0.00 79 1017.8
20260506120048 29 0 0.0 0.0 0.00 0.00 0.00 77 1017.7
20260506115518 30 0 0.0 0.0 0.00 0.00 0.00 78 1017.6
20260506115010 30 0 0.0 0.0 0.00 0.00 0.00 78 1017.4
20260506114532 30 0 0.0 0.0 0.00 0.00 0.00 78 1017.3
20260506114012 29 0 0.0 0.0 0.00 0.00 0.00 78 1017.3
20260506113511 29 0 0.0 0.0 0.00 0.00 0.00 76 1017.4
20260506113028 29 0 0.0 0.0 0.00 0.00 0.00 77 1017.3
20260506112511 30 0 0.0 0.9 0.00 0.00 0.00 77 1017.1
20260506112009 30 0 0.0 0.9 0.00 0.00 0.00 77 1017.1
20260506111528 30 0 0.0 0.9 0.00 0.00 0.00 77 1017.0
20260506111007 30 0 0.0 0.0 0.00 0.00 0.00 77 1017.0
20260506110510 30 0 0.0 0.0 0.00 0.00 0.00 77 1017.1
20260506110030 30 0 0.0 0.9 0.00 0.00 0.00 77 1017.1
20260506105508 30 0 0.0 0.9 0.00 0.00 0.00 76 1017.0
20260506105011 30 0 0.0 0.9 0.00 0.00 0.00 76 1017.0
20260506104538 30 0 0.0 0.9 0.00 0.00 0.00 77 1016.9
20260506104014 30 0 0.0 1.7 0.00 0.00 0.00 77 1017.0
20260506103508 29 330 0.0 1.7 0.00 0.00 0.00 78 1016.9
20260506103039 28 0 0.0 0.9 0.00 0.00 0.00 79 1017.0
20260506102516 28 0 0.0 0.9 0.00 0.00 0.00 78 1017.0
20260506102010 29 335 0.0 0.9 0.00 0.00 0.00 78 1017.1
20260506101528 29 0 0.0 0.0 0.00 0.00 0.00 77 1016.9
20260506101011 29 0 0.0 0.0 0.00 0.00 0.00 77 1017.0
20260506100511 29 0 0.0 0.0 0.00 0.00 0.00 77 1016.9
20260506100027 29 0 0.0 0.0 0.00 0.00 0.00 76 1016.9
20260506095508 30 0 0.0 0.0 0.00 0.00 0.00 76 1016.8
20260506095009 30 0 0.0 0.0 0.00 0.00 0.00 74 1016.7
20260506094528 30 0 0.0 0.0 0.00 0.00 0.00 74 1016.6
20260506094012 31 0 0.0 0.0 0.00 0.00 0.00 73 1016.6
20260506093515 31 0 0.0 0.9 0.00 0.00 0.00 73 1016.4
20260506093028 31 0 0.0 0.9 0.00 0.00 0.00 74 1016.4
20260506092508 30 337 0.0 0.9 0.00 0.00 0.00 76 1016.3
20260506092013 30 0 0.0 0.0 0.00 0.00 0.00 74 1016.5
20260506091528 30 0 0.0 0.0 0.00 0.00 0.00 73 1016.5
20260506091011 31 0 0.0 0.0 0.00 0.00 0.00 71 1016.4
20260506090510 32 0 0.0 0.0 0.00 0.00 0.00 71 1016.3
20260506090028 32 0 0.0 0.9 0.00 0.00 0.00 70 1016.3
20260506085510 33 0 0.0 1.7 0.00 0.00 0.00 70 1016.3
20260506085008 32 335 0.9 1.7 0.00 0.00 0.00 71 1016.2
20260506084603 32 349 1.7 1.7 0.00 0.00 0.00 72 1016.3
20260506084012 32 334 0.9 1.7 0.00 0.00 0.00 71 1016.3
20260506083508 32 298 0.0 1.7 0.00 0.00 0.00 71 1016.2
20260506083028 32 338 0.0 0.9 0.00 0.00 0.00 71 1016.0
20260506082511 32 342 0.0 0.9 0.00 0.00 0.00 71 1016.1
20260506082011 33 0 0.0 1.7 0.00 0.00 0.00 70 1016.0
20260506081538 33 326 0.9 1.7 0.00 0.00 0.00 69 1015.8
20260506081011 33 330 0.9 1.7 0.00 0.00 0.00 69 1015.7
20260506080511 33 321 0.0 1.7 0.00 0.00 0.00 69 1015.8
20260506073509 34 326 0.9 1.7 0.00 0.00 0.00 68 1015.6
20260506073029 34 344 0.9 1.7 0.00 0.00 0.00 67 1015.6
20260506072508 34 8 0.0 1.7 0.00 0.00 0.00 68 1015.6
20260506072019 34 8 0.9 1.7 0.00 0.00 0.00 69 1015.6
20260506071527 33 0 0.0 0.0 0.00 0.00 0.00 69 1015.8
20260506071009 33 0 0.0 0.0 0.00 0.00 0.00 70 1016.1
20260506070511 33 0 0.0 0.9 0.00 0.00 0.00 70 1016.1
20260506062508 33 0 0.0 0.9 0.00 0.00 0.00 67 1015.9
20260506062010 34 0 0.0 0.9 0.00 0.00 0.00 66 1016.0
20260506061529 35 0 0.0 1.7 0.00 0.00 0.00 65 1015.9
20260506061006 34 340 0.9 1.7 0.00 0.00 0.00 66 1015.8
20260506060510 34 0 0.0 0.9 0.00 0.00 0.00 66 1015.8
20260506051014 36 326 0.9 1.7 0.00 0.00 0.00 62 1015.5
20260506050510 36 322 0.9 1.7 0.00 0.00 0.00 62 1015.5
20260506045010 37 334 0.9 1.7 0.00 0.00 0.00 61 1015.5
20260506044536 37 329 0.9 1.7 0.00 0.00 0.00 61 1015.7
20260506044011 36 15 0.9 0.9 0.00 0.00 0.00 61 1015.7
20260506043510 36 300 0.0 0.9 0.00 0.00 0.00 61 1015.6
20260506043028 37 298 0.0 1.7 0.00 0.00 0.00 61 1015.7
20260506042511 37 317 0.9 2.6 0.00 0.00 0.00 61 1015.7
20260506042011 37 302 1.7 2.6 0.00 0.00 0.00 60 1015.6
20260506041529 37 327 0.9 2.6 0.00 0.00 0.00 59 1015.7
20260506041009 38 330 0.9 1.7 0.00 0.00 0.00 58 1015.7
20260506040510 37 322 0.9 1.7 0.00 0.00 0.00 59 1015.7
20260506040034 37 318 0.0 1.7 0.00 0.00 0.00 60 1015.8
20260506035508 38 309 0.0 1.7 0.00 0.00 0.00 59 1015.9
20260506035008 38 307 0.9 1.7 0.00 0.00 0.00 58 1015.7
20260506034529 38 321 0.9 0.9 0.00 0.00 0.00 58 1015.6
20260506034009 38 328 0.9 0.9 0.00 0.00 0.00 58 1015.4
20260506033511 38 0 0.0 0.0 0.00 0.00 0.00 57 1015.5
20260506033029 39 0 0.0 0.0 0.00 0.00 0.00 57 1015.4
20260506032511 39 0 0.0 0.9 0.00 0.00 0.00 56 1015.4
20260506032011 39 0 0.0 0.9 0.00 0.00 0.00 56 1015.3
20260506031539 39 313 0.0 0.9 0.00 0.00 0.00 56 1015.4
20260506031008 39 0 0.0 0.0 0.00 0.00 0.00 55 1015.3
20260506030512 40 312 0.0 1.7 0.00 0.00 0.00 55 1015.3
20260506030028 40 0 0.0 1.7 0.00 0.00 0.00 54 1015.3
20260506025511 40 316 0.9 1.7 0.00 0.00 0.00 53 1015.3
20260506025015 41 325 0.9 3.5 0.00 0.00 0.00 53 1015.2
20260506024531 41 9 0.9 3.5 0.00 0.00 0.00 53 1015.0
20260506024015 41 330 1.7 3.5 0.00 0.00 0.00 53 1015.0
20260506023517 41 333 1.7 4.3 0.00 0.00 0.00 52 1014.9
20260506023049 42 356 1.7 4.3 0.00 0.00 0.00 52 1014.9
20260506022512 42 323 2.6 5.2 0.00 0.00 0.00 51 1014.7
20260506022012 42 336 2.6 5.2 0.00 0.00 0.00 51 1014.6
20260506021550 42 333 1.7 4.3 0.00 0.00 0.00 50 1014.5
20260506021018 43 316 2.6 6.1 0.00 0.00 0.00 50 1014.4
20260506020508 43 341 2.6 7.0 0.00 0.00 0.00 49 1014.3
20260506020028 43 323 4.3 7.0 0.00 0.00 0.00 49 1014.4
20260506015511 43 328 3.5 6.1 0.00 0.00 0.00 49 1014.2
20260506015011 44 342 2.6 9.6 0.00 0.00 0.00 48 1014.2
20260506014529 44 18 3.5 10.4 0.00 0.00 0.00 47 1014.0
20260506014008 44 331 4.3 10.4 0.00 0.00 0.00 47 1014.2
20260506013511 44 330 2.6 6.1 0.00 0.00 0.00 47 1014.1
20260506013034 45 347 3.5 7.8 0.00 0.00 0.00 47 1014.0
20260506012509 45 341 4.3 7.8 0.00 0.00 0.00 46 1014.0
20260506012010 45 342 4.3 7.8 0.00 0.00 0.00 46 1014.0
20260506011528 46 327 5.2 11.3 0.00 0.00 0.00 45 1013.9
20260506011011 46 346 5.2 11.3 0.00 0.00 0.00 45 1013.9
20260506010511 46 342 5.2 8.7 0.00 0.00 0.00 44 1013.9
20260506010029 46 326 5.2 9.6 0.00 0.00 0.00 44 1013.9
20260506005508 47 314 5.2 11.3 0.00 0.00 0.00 44 1013.8
20260506005013 47 356 6.1 15.6 0.00 0.00 0.00 42 1013.7
20260506004529 47 338 6.1 15.6 0.00 0.00 0.00 42 1013.5
20260506004013 47 319 7.0 15.6 0.00 0.00 0.00 41 1013.5
20260506003517 47 307 7.8 16.5 0.00 0.00 0.00 42 1013.4
20260506003030 48 323 9.6 16.5 0.00 0.00 0.00 41 1013.4
20260506002511 48 351 8.7 14.8 0.00 0.00 0.00 41 1013.3
20260506002010 48 297 6.1 13.0 0.00 0.00 0.00 43 1013.2
20260506001529 48 342 7.0 13.0 0.00 0.00 0.00 43 1013.2
20260506001012 47 3 5.2 11.3 0.00 0.00 0.00 43 1013.2
20260506000511 48 343 7.0 13.0 0.00 0.00 0.00 42 1013.2
20260506000030 48 332 7.8 13.9 0.00 0.00 0.00 42 1013.2
20260505235513 48 348 7.0 13.9 0.00 0.00 0.00 43 1013.2
20260505235010 48 357 7.0 13.9 0.00 0.00 0.00 42 1013.1
20260505234527 48 327 7.8 16.5 0.00 0.00 0.00 40 1013.2
20260505234011 48 332 8.7 16.5 0.00 0.00 0.00 41 1013.2
20260505233514 48 319 7.8 13.0 0.00 0.00 0.00 40 1013.3
20260505233028 48 304 8.7 13.0 0.00 0.00 0.00 40 1013.1
20260505232512 48 358 7.0 13.0 0.00 0.00 0.00 39 1013.1
20260505232010 49 323 6.1 13.9 0.00 0.00 0.00 40 1013.1